GPS BIIF-1 (PRN 25) (36585 NORAD) Tracking and Keplerian Element Data

This shows tracking and keplerian element data for the satellite.

Feedback or suggestion? Click here.




ElementValue
Catalog36585
NameGPS BIIF-1 (PRN 25)
Epoch Orbit10759
Epoch Day34.62294789
Epoch Year2025
RAAN228.6569
Inclination54.3747
Eccentricity0.0121591
Argument of Perigee63.3542
Mean Anonmoly113.2818
Mean Motion2.00563103
Decay Rate8.4E-07
L11 36585U 10022A 25034.62294789 .00000084 00000+0 00000+0 0 9993
L22 36585 54.3747 228.6569 0121591 63.3542 113.2818 2.00563103107595



Live tracking and technical data element details for GPS BIIF-1 (PRN 25) (NORAD 36585). GPS BIIF-1 (PRN 25) can be tracked NOW for your location showing map with azimuth and elevation plus other details from your city location.







IsCatalogInMostPopularTable: catalog: 36585, numindb: 478
Update: records affected: 1



GetName: 36585 GPS BIIF-1 (PRN 25)

Hit Count: updated at: Sat, 24 May 2025 16:41:02 GMT